NOAA 16 DEB, 41068

Orbit data source: Space-Track

NOAA 16 DEB, 41068 is space debris in SSO originally from a launch on Thu, 21 Sep 2000 UTC launched from the Air Force Western Test Range (AFWTR). Debris objects in space refer to the collection of defunct objects orbiting the Earth. Examples of debris include non-operational satellites, rocket bodies, and fragments generated from explosions, collisions, or faulty payload assembly.

Loading next visibility...
NOAA 16 DEB details
Identifier
41068, 2000-055AB
Orbit
SSO
Last TLE update21 hours ago
Origin
Flag of USNOAA (US)
ManufacturerUnknown
MissionSpacecraft
Bus & MotorUnknown
MassUnknown
Launch date (UTC)
2000-09-21 (24 years ago)
Launch vehicleUnknown
Launch site
Air Force Western Test Range (AFWTR)
Object type
Payload
Rocket body
Debris
Shape & HBRUnknown
Radar Cross SectionSmall (<0.1 m²)

Expand to show TLE details & history

TLE from 21 hours ago
0 NOAA 16 DEB
1 41068U 00055AB  25044.78756166  .00003390  00000-0  97785-3 0  9994
2 41068  99.1203 345.4171 0148381 123.6712 237.8725 14.39129157481792
Epoch: 2025-02-13T18:54Z
Definitive object data (Epoch: 2025-02-13T18:54:05.327Z)
Latitude-0.00009°
Longitude-82.16375°
Altitude821.769 km
Speed7.412 km/s
True Right ascension23h 01m 40s
True Declination0° 00' 00"
Sunlit
Object was in daylight at TLE epoch
Visualization TLE readout
Latitude-15.43424°
Longitude96.23601°
Altitude737.46 km
Speed7.501 km/s
Apparent Right ascension09h 06m 48s
Apparent Declination-31° 04' 44"
Sunlit
Object is in full shadow
Visualization observer readout
Local Sidereal Time18:28:09
Azimuth272.84° WNW
Elevation-56.816°
Doppler factor1
Orbital elements
Apogee altitude864.424 km
Perigee altitude652.635 km
Semi-major axis7,136.667 km
Eccentricity0.0148381
Inclination99.1203°
RAAN345.4171°
Arg. of periapsis123.6712°
True anomaly236.44677°
Mean anomaly237.8725°
Eccentric anomaly237.15822°
Mean motion3.59998 °/min
BSTAR0.00097785
Orbital period100 mins
Loading maneuver chart data...
Loading historical data...
Loading historical data...
Loading historical data...
Loading historical data...
Loading historical data...
Loading historical data...
Loading historical data...

NOAA 16 DEB Visibility forecast

Observer location: undefined°, undefined

Span
Click to sort rows by Start time (UTC) header in descending order
Start Az.
Max El. time (UTC)
Max El. Az.
Max El.
End time (UTC)
End Az.
8 mins2025-02-14 20:02:57.590Z174.619° S2025-02-14 20:06:57.590Z252.829° W43.182°2025-02-14 20:10:57.590Z339.294° N
6 mins2025-02-15 08:12:57.590Z50.05° ENE2025-02-15 08:14:57.590Z89.353° E27.296°2025-02-15 08:18:57.590Z159.081° S
5 mins2025-02-15 09:51:57.590Z330.374° NNW2025-02-15 09:53:57.590Z294.743° NW21.435°2025-02-15 09:56:57.590Z247.045° WSW
|